Regional Weather Roundup
Issued by NWS Sioux Falls, SD

Home | Current Version | Previous Version | Text Only | Print | Product List | Glossary On
Versions: 1 2 3 4 5 6 7 8 9 10 11 12 13 14 15 16 17 18 19 20 21 22 23 24 25 26 27 28 29 30 31 32 33 34 35 36 37 38 39 40 41 42 43 44 45 46 47 48 49 50
000
ASUS43 KFSD 011810
RWRFSD

WEATHER ROUNDUP FOR SE SOUTH DAKOTA/SW MINNESOTA/NW IOWA
NATIONAL WEATHER SERVICE SIOUX FALLS SD
100 PM CDT WED OCT 01 2014

NOTE: "FAIR" INDICATES FEW OR NO CLOUDS BELOW 12,000 FEET WITH NO
SIGNIFICANT WEATHER AND OR OBSTRUCTIONS TO VISIBILITY.


SDZ038>040-050-052>070-011900-
SOUTHEAST SOUTH DAKOTA

CITY           SKY/WX    TMP DP  RH WIND       PRES   REMARKS
CHAMBERLAIN    SUNNY     69  50  50 NW8       29.77F
6HR MIN TEMP:  49; 6HR MAX TEMP:  69;

HURON          SUNNY     71  51  49 NW12      29.73S
6HR MIN TEMP:  60; 6HR MAX TEMP:  71;

MADISON        FAIR      70  59  68 NW13      29.73S
MITCHELL       SUNNY     72  52  49 NW10      29.74S
6HR MIN TEMP:  60; 6HR MAX TEMP:  73;

SIOUX FALLS    PTSUNNY   70  59  68 VRB6      29.73S
6HR MIN TEMP:  63; 6HR MAX TEMP:  71; 6HR PCP: TRACE;

WINNER         FAIR      70  48  45 NW13      29.80F
YANKTON        FAIR      72  61  68 W12       29.73S
$$

MNZ071-072-080-081-089-090-097-098-011900-
SOUTHWEST MINNESOTA

CITY           SKY/WX    TMP DP  RH WIND       PRES   REMARKS
FAIRMONT       CLOUDY    57  54  88 SE9       29.77F
JACKSON        PTSUNNY   63  55  77 SE7       29.76S
LUVERNE        FAIR      73  54  49 SW7       29.73S
MARSHALL       PTSUNNY   72  57  60 SW6       29.71S
6HR MIN TEMP:  61; 6HR MAX TEMP:  72;

MONTEVIDEO     FAIR      70  63  78 S7        29.72S
PIPESTONE      CLOUDY    70  59  68 W6        29.73S
REDWOOD FALLS  CLOUDY    62  55  77 S14       29.74F
TRACY          FAIR      67  59  75 SE6       29.73S
WINDOM         FAIR      64  57  77 S6        29.74F
WORTHINGTON    CLOUDY    63  57  82 S6        29.75S
$$

IAZ001>003-012>014-020>022-031-032-NEZ013-014-SDZ071-011900-
NORTHWEST IOWA

CITY           SKY/WX    TMP DP  RH WIND       PRES   REMARKS
CHEROKEE       PTSUNNY   69  62  79 S5        29.75S
DENISON        PTSUNNY   72  63  73 SE6       29.74S
ESTHERVILLE    CLOUDY    59  58  96 SE7       29.76F FOG
LE MARS        FAIR      73  61  64 S12       29.74S
ORANGE CITY    FAIR      72  59  64 S9        29.74S
SHELDON        PTSUNNY   68  61  77 S9        29.74R
SIOUX CITY     FAIR      72  61  68 VRB7      29.74S
6HR MIN TEMP:  57; 6HR MAX TEMP:  72;

SPENCER        CLOUDY    61  58  90 SE7       29.76S
6HR MIN TEMP:  57; 6HR MAX TEMP:  62; 6HR PCP:  0.01;

STORM LAKE     PTSUNNY   68  59  73 SW3       29.77S
$$

ABBREVIATIONS USED IN REMARKS
   TC - TEMPERATURE IN CELSIUS
  WCI - WIND CHILL INDEX
   HX - HEAT INDEX
  VSB - VISIBILITY




USA.gov is the U.S. government's official web portal to all federal, state and local government web resources and services.